Curacao Island, Netherlands

10:29 PM AST on December 04, 2016 (GMT -0400)
Flamingo

Weather History for TNCB - August, 2013

Change the Weather History Date:

Sunday, August 18, 2013

  Actual Average Record
Temperature  
Mean Temperature 84 °F -  
Max Temperature 89 °F 89 °F 93 °F (2005)
Min Temperature 80 °F 82 °F 80 °F (2013)
Cooling Degree Days 20    
Growing Degree Days 34 (Base 50)    
Moisture  
Dew Point 76 °F    
Average Humidity 76    
Maximum Humidity 89    
Minimum Humidity 62    
Precipitation  
Precipitation 0.00 in - - ()
Sea Level Pressure  
Sea Level Pressure 29.87 in    
Wind  
Wind Speed 11 mph ()    
Max Wind Speed 17 mph    
Max Gust Speed -    
Visibility 6.2 miles    
Events      
Averages and records for this station are not official NWS values.
T = Trace of Precipitation, MM = Missing Value Source: Averaged Metar Reports

Daily Weather History Graph

Daily Weather History Graph

Search for Another Location

Airport or City:

Trip Planner

Search our weather history database for the weather conditions in past years. The results will help you decide how hot, cold, wet, or windy it might be!

Date:

Astronomy

Aug. 18, 2013 Rise Set
Actual Time 6:22 AM AST 6:51 PM AST
Civil Twilight 6:00 AM AST 7:13 PM AST
Nautical Twilight 5:34 AM AST 7:38 PM AST
Astronomical Twilight 5:09 AM AST 8:04 PM AST
Moon 4:44 PM AST (8/18) 3:42 AM AST (8/18)
Length of Visible Light 13h 13m
Length of Day
12h 29m
Waxing Gibbous, 92% of the Moon is Illuminated
Aug 18
Waxing Gibbous
Aug 20
Full
Aug 28
Last Quarter
Sep 5
New
Sep 12
First Quarter

Hourly Weather History & Observations

Time (AST) Temp. Heat Index Dew Point Humidity Pressure Visibility Wind Dir Wind Speed Gust Speed Precip Events Conditions
12:55 AM 82.4 °F 89.5 °F 75.2 °F 79% 29.89 in - East 15.0 mph - N/A   Unknown
1:55 AM 82.4 °F 90.9 °F 77.0 °F 84% 29.86 in - East 12.7 mph - N/A   Unknown
2:55 AM 82.4 °F 90.9 °F 77.0 °F 84% 29.86 in - East 13.8 mph - N/A   Unknown
3:55 AM 82.4 °F 90.9 °F 77.0 °F 84% 29.86 in - East 10.4 mph - N/A   Unknown
4:55 AM 82.4 °F 89.5 °F 75.2 °F 79% 29.86 in - East 12.7 mph - N/A   Unknown
5:55 AM 80.6 °F 87.1 °F 77.0 °F 89% 29.86 in - East 10.4 mph - N/A   Unknown
6:55 AM 80.6 °F 86.2 °F 75.2 °F 84% 29.89 in - East 9.2 mph - N/A   Unknown
7:55 AM 84.2 °F 92.3 °F 75.2 °F 74% 29.89 in - East 13.8 mph - N/A   Unknown
8:55 AM 84.2 °F 94.1 °F 77.0 °F 79% 29.92 in 6.2 mi East 16.1 mph - N/A   Partly Cloudy
10:00 AM 86.0 °F 96.9 °F 77.0 °F 74% 29.92 in 6.2 mi ESE 12.7 mph - N/A   Scattered Clouds
11:00 AM 87.8 °F 99.7 °F 77.0 °F 70% 29.92 in 6.2 mi East 15.0 mph - N/A   Scattered Clouds
12:00 PM 87.8 °F 97.6 °F 75.2 °F 66% 29.92 in 6.2 mi East 17.3 mph - N/A   Scattered Clouds
1:00 PM 89.6 °F 99.8 °F 75.2 °F 62% 29.89 in 6.2 mi East 13.8 mph - N/A   Partly Cloudy
1:55 PM 89.6 °F 99.8 °F 75.2 °F 62% 29.89 in - ESE 13.8 mph - N/A   Unknown
2:00 PM 89.6 °F 99.8 °F 75.2 °F 62% 29.89 in 6.2 mi ESE 13.8 mph - N/A   Partly Cloudy
3:00 PM 87.8 °F 97.6 °F 75.2 °F 66% 29.86 in 6.2 mi East 11.5 mph - N/A   Partly Cloudy
4:00 PM 87.8 °F 97.6 °F 75.2 °F 66% 29.83 in 6.2 mi East 13.8 mph - N/A   Partly Cloudy
6:00 PM 86.0 °F 96.9 °F 77.0 °F 74% 29.80 in 6.2 mi NE 13.8 mph - N/A   Scattered Clouds
6:55 PM 84.2 °F 94.1 °F 77.0 °F 79% 29.83 in - ENE 12.7 mph - N/A   Unknown
8:00 PM 84.2 °F 96.1 °F 78.8 °F 84% 29.83 in 6.2 mi ENE 12.7 mph - N/A   Scattered Clouds
8:55 PM 84.2 °F 94.1 °F 77.0 °F 79% 29.86 in - ENE 11.5 mph - N/A   Unknown
9:55 PM 82.4 °F 90.9 °F 77.0 °F 84% 29.89 in - ENE 8.1 mph - N/A   Unknown
11:55 PM 82.4 °F 90.9 °F 77.0 °F 84% 29.89 in 6.2 mi East 9.2 mph - N/A   Scattered Clouds